Weather History for Casper, WY

Change the Weather History Date:

Sunday, April 1, 2012

  Actual Average Record
Temperature  
Mean Temperature 56 °F 39 °F  
Max Temperature 75 °F 53 °F 75 °F (2004)
Min Temperature 37 °F 26 °F -1 °F (1975)
Degree Days  
Heating Degree Days 9 26  
Month to date heating degree days 9 26  
Since 1 July heating degree days 5838 6399  
Cooling Degree Days 0 0  
Month to date cooling degree days 0 0  
Year to date cooling degree days 0 0  
Growing Degree Days 8 (Base 50)    
Moisture  
Dew Point 22 °F    
Average Humidity 41    
Maximum Humidity 70    
Minimum Humidity 12    
Precipitation  
Precipitation T in 0.03 in 0.26 in (2010)
Month to date precipitation T 0.03  
Year to date precipitation 1.88 1.93  
Snow  
Snow 0.00 in 0.50 in - ()
Month to date snowfall 0.0 0.5  
Since 1 July snowfall 49.7 60.8  
Snow Depth 0.00 in    
Sea Level Pressure  
Sea Level Pressure 29.42 in    
Wind  
Wind Speed 21 mph (WSW)    
Max Wind Speed 32 mph    
Max Gust Speed 43 mph    
Visibility 10 miles    
Events      
T = Trace of Precipitation, MM = Missing Value Source: NWS Daily Summary

Daily Weather History Graph

Daily Weather History Graph

Search for Another Location

Airport:

Trip Planner

Search our weather history database for the weather conditions in past years. The results will help you decide how hot, cold, wet, or windy it might be!

Date:

Astronomy

Apr. 01, 2012 Rise Set
Actual Time 6:47 AM MDT 7:32 PM MDT
Civil Twilight 6:18 AM MDT 8:01 PM MDT
Nautical Twilight 5:44 AM MDT 8:35 PM MDT
Astronomical Twilight 5:09 AM MDT 9:10 PM MDT
Moon 1:58 PM MDT (4/1) 3:33 AM MDT (4/1)
Length of Visible Light 13h 43m
Length of Day
12h 45m
Waxing Gibbous, 69% of the Moon is Illuminated
Apr 1
Waxing Gibbous
Apr 6
Full
Apr 13
Last Quarter
Apr 21
New
Apr 29
First Quarter

Hourly Weather History & Observations

Time (MDT) Temp. Windchill Dew Point Humidity Pressure Visibility Wind Dir Wind Speed Gust Speed Precip Events Conditions
12:53 AM 46.0 °F 41.9 °F 18.0 °F 33% 29.41 in 10.0 mi West 8.1 mph - N/A   Clear
1:53 AM 57.0 °F - 17.1 °F 21% 29.35 in 10.0 mi SSW 16.1 mph 19.6 mph N/A   Clear
2:07 AM 57.2 °F - 17.6 °F 21% 29.54 in 10.0 mi SSW 17.3 mph 23.0 mph N/A   Clear
2:53 AM 57.0 °F - 17.1 °F 21% 29.34 in 10.0 mi SSW 18.4 mph - N/A   Clear
3:53 AM 52.0 °F - 18.0 °F 26% 29.35 in 10.0 mi SW 12.7 mph - N/A   Clear
4:53 AM 54.0 °F - 18.0 °F 24% 29.35 in 10.0 mi SSW 15.0 mph - N/A   Clear
5:53 AM 55.0 °F - 19.0 °F 24% 29.35 in 10.0 mi WSW 15.0 mph - N/A   Clear
6:53 AM 48.0 °F - 19.0 °F 32% 29.39 in 10.0 mi WSW 15.0 mph - N/A   Clear
7:53 AM 50.0 °F - 21.9 °F 33% 29.43 in 10.0 mi WSW 10.4 mph - N/A   Clear
8:53 AM 60.1 °F - 21.9 °F 23% 29.44 in 10.0 mi WSW 17.3 mph 25.3 mph N/A   Clear
9:53 AM 64.9 °F - 24.1 °F 21% 29.40 in 10.0 mi WSW 16.1 mph 26.5 mph N/A   Clear
10:53 AM 66.9 °F - 23.0 °F 19% 29.36 in 10.0 mi SW 27.6 mph 36.8 mph N/A   Clear
11:53 AM 69.1 °F - 21.9 °F 17% 29.36 in 10.0 mi SSW 26.5 mph 36.8 mph N/A   Clear
12:53 PM 71.1 °F - 19.9 °F 14% 29.37 in 10.0 mi SW 24.2 mph 36.8 mph N/A   Clear
1:53 PM 73.0 °F - 19.0 °F 13% 29.32 in 10.0 mi SW 29.9 mph 39.1 mph N/A   Clear
2:53 PM 73.0 °F - 17.1 °F 12% 29.30 in 10.0 mi SW 25.3 mph 35.7 mph N/A   Clear
3:53 PM 73.9 °F - 17.1 °F 12% 29.29 in 10.0 mi SW 21.9 mph 31.1 mph N/A   Clear
4:53 PM 73.0 °F - 17.1 °F 12% 29.28 in 10.0 mi SW 24.2 mph 28.8 mph N/A   Clear
5:53 PM 71.1 °F - 15.1 °F 12% 29.29 in 10.0 mi WSW 18.4 mph 27.6 mph N/A   Clear
6:50 PM 57.2 °F - 30.2 °F 36% 29.51 in 10.0 mi North 32.2 mph 40.3 mph N/A   Clear
6:53 PM 57.0 °F - 30.9 °F 37% 29.40 in 10.0 mi North 29.9 mph 40.3 mph N/A   Clear
7:00 PM 55.4 °F - 30.2 °F 38% 29.52 in 10.0 mi North 26.5 mph 36.8 mph N/A   Clear
7:53 PM 51.1 °F - 28.9 °F 43% 29.50 in 10.0 mi North 28.8 mph 35.7 mph N/A   Partly Cloudy
8:53 PM 45.0 °F 36.0 °F 30.9 °F 58% 29.56 in 10.0 mi North 25.3 mph 38.0 mph N/A   Clear
9:53 PM 43.0 °F 33.8 °F 30.9 °F 62% 29.61 in 10.0 mi North 23.0 mph 32.2 mph N/A   Overcast
10:53 PM 42.1 °F 31.0 °F 32.0 °F 67% 29.61 in 10.0 mi North 32.2 mph 36.8 mph N/A   Overcast
11:53 PM 39.9 °F 30.2 °F 30.9 °F 70% 29.65 in 10.0 mi North 20.7 mph 28.8 mph N/A   Overcast